GW0655 Weather Reports


Display with metric or nautical units.
time (UTC)temp
F
wind
direction
speed
MPH
gust
MPH
rain 1hr
in
rain 24hr
in
rain mn
in
humidity
%
barometer
mb
20260510063531 71 221 0.0 0.0 0.00 0.00 0.00 81 1012.7
20260510063028 71 247 0.0 0.0 0.00 0.00 0.00 80 1012.7
20260510062524 72 209 1.0 1.0 0.00 0.00 0.00 80 1012.7
20260510062019 72 240 0.0 0.0 0.00 0.00 0.00 80 1012.7
20260510061516 72 231 1.0 1.0 0.00 0.00 0.00 79 1012.7
20260510061013 72 143 1.0 1.0 0.00 0.00 0.00 79 1012.7
20260510060510 72 201 1.0 2.0 0.00 0.00 0.00 79 1012.7
20260510060006 72 202 1.0 1.0 0.00 0.00 0.00 79 1012.7
20260510055501 72 236 1.0 1.0 0.00 0.00 0.00 79 1012.4
20260510055000 72 157 2.0 2.0 0.00 0.00 0.00 79 1012.7
20260510054455 73 178 0.0 0.0 0.00 0.00 0.00 79 1012.4
20260510053950 73 161 3.0 5.0 0.00 0.00 0.00 78 1012.4
20260510053445 73 202 1.0 1.0 0.00 0.00 0.00 79 1012.7
20260510052942 73 235 0.0 1.0 0.00 0.00 0.00 79 1012.7
20260510052438 73 141 1.0 2.0 0.00 0.00 0.00 79 1012.4
20260510051934 73 177 1.0 1.0 0.00 0.00 0.00 79 1012.7
20260510051431 73 250 0.0 0.0 0.00 0.00 0.00 80 1012.7
20260510050927 73 239 0.0 0.0 0.00 0.00 0.00 81 1012.7
20260510050424 73 196 0.0 0.0 0.00 0.00 0.00 81 1012.7
20260510045921 73 209 0.0 1.0 0.00 0.01 0.01 80 1012.4
20260510045419 74 176 0.0 0.0 0.00 0.01 0.01 80 1012.7
20260510044915 73 176 0.0 0.0 0.00 0.01 0.01 81 1012.4
20260510044412 74 202 0.0 0.0 0.00 0.01 0.01 81 1012.4
20260510043909 74 241 0.0 0.0 0.00 0.01 0.01 81 1012.4
20260510043405 74 211 0.0 0.0 0.00 0.01 0.01 81 1012.7
20260510042903 74 241 0.0 0.0 0.00 0.01 0.01 81 1012.4
20260510042359 74 193 0.0 1.0 0.00 0.01 0.01 81 1012.4
20260510041854 75 247 0.0 0.0 0.00 0.01 0.01 80 1012.4
20260510041352 75 184 0.0 1.0 0.00 0.01 0.01 81 1012.7
20260510040849 75 212 0.0 0.0 0.00 0.01 0.01 80 1012.4
20260510040346 75 169 0.0 1.0 0.00 0.01 0.01 81 1012.4
20260510035841 75 209 0.0 1.0 0.00 0.01 0.01 81 1012.4
20260510035337 76 243 0.0 1.0 0.00 0.01 0.01 81 1012.4
20260510034833 76 226 1.0 1.0 0.00 0.01 0.01 81 1012.0
20260510034331 76 254 1.0 1.0 0.00 0.01 0.01 81 1012.0
20260510033828 76 183 1.0 1.0 0.00 0.01 0.01 81 1012.0
20260510033325 76 223 0.0 1.0 0.00 0.01 0.01 80 1012.0
20260510032821 76 224 0.0 0.0 0.00 0.01 0.01 80 1011.7
20260510032318 76 229 0.0 0.0 0.00 0.01 0.01 80 1011.7
20260510031814 76 230 0.0 0.0 0.00 0.01 0.01 81 1011.7
20260510031309 77 192 0.0 0.0 0.00 0.01 0.01 80 1011.7
20260510030803 77 207 0.0 0.0 0.00 0.01 0.01 80 1011.7
20260510030300 77 240 0.0 0.0 0.00 0.01 0.01 80 1011.7
20260510025757 77 196 0.0 0.0 0.00 0.01 0.01 80 1011.3
20260510025255 77 197 0.0 1.0 0.00 0.01 0.01 79 1011.3
20260510024751 78 210 0.0 0.0 0.00 0.01 0.01 79 1011.0
20260510024248 78 200 0.0 0.0 0.00 0.01 0.01 78 1011.3
20260510023744 78 218 0.0 0.0 0.00 0.01 0.01 78 1011.0
20260510023241 79 210 0.0 0.0 0.00 0.01 0.01 78 1011.3
20260510022738 79 226 0.0 0.0 0.00 0.01 0.01 77 1011.0
20260510022237 79 204 0.0 0.0 0.00 0.01 0.01 77 1011.0
20260510021732 80 203 0.0 0.0 0.00 0.01 0.01 76 1011.0
20260510021230 80 225 0.0 1.0 0.00 0.01 0.01 76 1011.0
20260510020730 80 217 0.0 1.0 0.00 0.01 0.01 75 1010.7
20260510020226 80 200 1.0 1.0 0.00 0.01 0.01 75 1010.7
20260510015722 81 233 1.0 1.0 0.00 0.01 0.01 74 1010.7
20260510015218 81 236 0.0 0.0 0.00 0.01 0.01 73 1010.7
20260510014713 81 232 1.0 1.0 0.00 0.01 0.01 73 1010.7
20260510014211 82 165 1.0 1.0 0.00 0.01 0.01 73 1010.7
20260510013706 82 201 1.0 1.0 0.00 0.01 0.01 72 1010.3
20260510013202 82 189 0.0 0.0 0.00 0.01 0.01 71 1010.3
20260510012701 82 179 1.0 2.0 0.00 0.01 0.01 71 1010.3
20260510012157 83 215 2.0 3.0 0.00 0.01 0.01 70 1010.3
20260510011652 83 224 0.0 0.0 0.00 0.01 0.01 69 1010.3
20260510011148 84 249 0.0 0.0 0.00 0.01 0.01 69 1010.3
20260510010644 84 208 0.0 0.0 0.00 0.01 0.01 68 1010.0
20260510010142 84 167 1.0 2.0 0.00 0.01 0.01 67 1010.3
20260510005637 84 160 1.0 2.0 0.00 0.01 0.01 66 1010.3
20260510005134 85 140 2.0 3.0 0.00 0.01 0.01 66 1010.0
20260510004633 85 161 2.0 3.0 0.00 0.01 0.01 65 1010.3
20260510004131 85 167 1.0 1.0 0.00 0.01 0.01 65 1010.0
20260510003627 86 152 1.0 1.0 0.00 0.01 0.01 64 1010.0
20260510003123 86 168 2.0 3.0 0.00 0.01 0.01 63 1010.3
20260510002617 86 112 2.0 2.0 0.00 0.01 0.01 63 1010.0
20260510002115 86 218 2.0 3.0 0.00 0.01 0.01 62 1010.0
20260510001612 86 112 1.0 2.0 0.00 0.01 0.01 62 1010.0
20260510001111 86 207 3.0 5.0 0.00 0.01 0.01 61 1010.0
20260510000611 87 167 2.0 2.0 0.00 0.01 0.01 61 1010.0
20260510000108 87 101 2.0 2.0 0.00 0.01 0.01 60 1010.0
20260509235604 87 65 1.0 2.0 0.00 0.01 0.01 60 1009.6
20260509235102 87 154 0.0 0.0 0.00 0.01 0.01 60 1009.6
20260509234557 87 242 0.0 0.0 0.00 0.01 0.01 60 1010.0
20260509234055 87 161 1.0 2.0 0.00 0.01 0.01 59 1009.6
20260509233553 87 254 0.0 1.0 0.00 0.01 0.01 60 1009.6
20260509233050 87 189 2.0 2.0 0.00 0.01 0.01 60 1009.6
20260509232546 88 177 2.0 3.0 0.00 0.01 0.01 59 1009.3
20260509232043 88 253 1.0 1.0 0.00 0.01 0.01 60 1009.6
20260509231539 88 231 4.0 5.0 0.00 0.01 0.01 58 1009.6
20260509231037 89 238 1.0 1.0 0.00 0.01 0.01 57 1009.6
20260509230534 89 179 2.0 2.0 0.00 0.01 0.01 55 1009.3
20260509230031 89 197 1.0 2.0 0.00 0.01 0.01 56 1009.3
20260509225526 89 253 0.0 0.0 0.00 0.01 0.01 55 1009.3
20260509225022 89 243 0.0 0.0 0.00 0.01 0.01 54 1009.6
20260509224518 89 258 0.0 0.0 0.00 0.01 0.01 53 1009.6
20260509224015 89 179 1.0 1.0 0.00 0.01 0.01 56 1009.3
20260509223512 89 167 0.0 0.0 0.00 0.01 0.01 55 1009.6
20260509223010 89 160 0.0 1.0 0.00 0.01 0.01 54 1009.6
20260509222505 88 285 0.0 0.0 0.00 0.01 0.01 54 1009.6
20260509222001 88 310 1.0 1.0 0.00 0.01 0.01 54 1009.3
20260509221457 89 254 1.0 1.0 0.00 0.01 0.01 53 1009.6
20260509220953 87 270 0.0 0.0 0.00 0.01 0.01 50 1009.6
20260509220449 88 293 0.0 0.0 0.00 0.01 0.01 51 1009.3
20260509215945 87 326 1.0 2.0 0.00 0.01 0.01 51 1009.6
20260509215441 87 270 0.0 0.0 0.00 0.01 0.01 49 1009.6
20260509214939 88 267 0.0 1.0 0.00 0.01 0.01 49 1010.0
20260509214436 87 215 1.0 2.0 0.00 0.01 0.01 51 1009.6
20260509213932 86 213 0.0 1.0 0.00 0.01 0.01 51 1010.0
20260509213428 87 267 0.0 0.0 0.00 0.01 0.01 53 1010.0
20260509212926 88 264 1.0 1.0 0.00 0.01 0.01 51 1010.3
20260509212423 87 301 3.0 3.0 0.00 0.01 0.01 51 1010.0
20260509211919 87 183 0.0 0.0 0.00 0.01 0.01 53 1010.0
20260509211415 85 273 1.0 1.0 0.00 0.01 0.01 52 1010.0
20260509210911 83 242 1.0 2.0 0.00 0.01 0.01 54 1010.3
20260509210409 84 239 1.0 1.0 0.00 0.01 0.01 58 1010.3
20260509205904 82 282 0.0 1.0 0.00 0.01 0.01 57 1010.7
20260509205403 81 322 2.0 2.0 0.00 0.01 0.01 69 1010.3
20260509204900 79 228 1.0 1.0 0.00 0.01 0.01 70 1010.7
20260509204356 77 192 1.0 1.0 0.00 0.01 0.01 73 1010.7
20260509203853 77 246 1.0 1.0 0.00 0.01 0.01 76 1010.7
20260509203349 75 255 0.0 0.0 0.00 0.01 0.01 79 1010.7
20260509202847 75 245 0.0 0.0 0.00 0.01 0.01 80 1010.0
20260509202342 74 292 1.0 1.0 0.00 0.01 0.01 79 1010.7
20260509201837 74 313 0.0 0.0 0.00 0.01 0.01 79 1010.7
20260509201328 75 316 1.0 1.0 0.00 0.01 0.01 76 1010.7
20260509200824 76 267 1.0 1.0 0.00 0.01 0.01 71 1011.0
20260509200320 77 328 3.0 3.0 0.00 0.01 0.01 64 1011.7
20260509195817 77 293 4.0 5.0 0.00 0.01 0.01 58 1011.3
20260509195317 78 10 6.0 8.0 0.00 0.01 0.01 55 1011.3
20260509194817 79 350 6.0 7.0 0.00 0.01 0.01 56 1011.3
20260509194313 87 346 5.0 6.0 0.00 0.01 0.01 58 1011.3
20260509193810 87 59 0.0 0.0 0.00 0.01 0.01 63 1011.3
20260509193309 88 62 3.0 3.0 0.00 0.01 0.01 62 1011.0
20260509192806 89 190 3.0 3.0 0.00 0.01 0.01 60 1010.7
20260509192305 90 189 2.0 3.0 0.00 0.01 0.01 60 1010.7
20260509191757 90 234 0.0 1.0 0.00 0.01 0.01 59 1011.0
20260509191253 89 212 4.0 6.0 0.00 0.01 0.01 59 1011.3
20260509190749 89 210 3.0 5.0 0.00 0.01 0.01 61 1011.0
20260509190247 90 230 2.0 2.0 0.00 0.01 0.01 60 1011.0
20260509185744 88 196 3.0 6.0 0.00 0.01 0.01 63 1011.0
20260509185240 88 132 2.0 5.0 0.00 0.01 0.01 64 1011.3
20260509184738 90 158 1.0 1.0 0.00 0.01 0.01 62 1011.3
20260509184235 89 212 3.0 5.0 0.00 0.01 0.01 62 1011.7
20260509183731 89 273 0.0 1.0 0.00 0.01 0.01 63 1011.7
20260509183226 90 96 3.0 3.0 0.00 0.01 0.01 61 1011.7
20260509182722 89 203 0.0 0.0 0.00 0.01 0.01 66 1011.7
20260509182220 88 268 2.0 2.0 0.00 0.01 0.01 64 1012.0
20260509181717 87 183 1.0 3.0 0.00 0.01 0.01 66 1011.7
20260509181215 87 212 2.0 2.0 0.00 0.01 0.01 67 1012.0
20260509180712 87 208 3.0 3.0 0.00 0.01 0.01 66 1012.0
20260509180208 86 183 3.0 3.0 0.00 0.01 0.01 69 1012.0
20260509175704 86 240 1.0 1.0 0.00 0.01 0.01 70 1012.4
20260509175201 86 152 1.0 1.0 0.00 0.01 0.01 69 1012.0
20260509174656 86 209 2.0 2.0 0.00 0.01 0.01 68 1012.4
20260509174151 86 253 0.0 1.0 0.00 0.01 0.01 70 1012.4
20260509173648 85 274 0.0 1.0 0.00 0.01 0.01 71 1012.7
20260509173143 85 184 4.0 5.0 0.00 0.01 0.01 70 1012.7
20260509172640 84 239 1.0 2.0 0.00 0.01 0.01 73 1012.7
20260509172136 83 190 2.0 2.0 0.00 0.01 0.01 75 1012.7
20260509171632 83 184 3.0 3.0 0.00 0.01 0.01 74 1012.7
20260509171128 84 239 3.0 3.0 0.00 0.01 0.01 77 1012.4
20260509170625 84 287 2.0 2.0 0.00 0.01 0.01 73 1012.4
20260509170121 84 175 4.0 6.0 0.00 0.01 0.01 74 1012.4
20260509165619 83 288 2.0 5.0 0.00 0.01 0.01 76 1012.4
20260509165115 83 247 3.0 3.0 0.00 0.01 0.01 77 1012.4
20260509164611 84 218 2.0 2.0 0.00 0.01 0.01 76 1012.4
20260509164107 82 228 1.0 1.0 0.00 0.01 0.01 77 1012.7
20260509163606 82 292 3.0 3.0 0.00 0.01 0.01 78 1012.7
20260509163101 81 194 3.0 3.0 0.00 0.01 0.01 79 1012.7
20260509162558 81 188 4.0 6.0 0.00 0.01 0.01 79 1012.7
20260509162054 81 253 2.0 2.0 0.00 0.01 0.01 79 1012.7
20260509161550 81 200 3.0 5.0 0.00 0.01 0.01 80 1012.7
20260509161045 81 133 3.0 5.0 0.00 0.01 0.01 79 1012.7
20260509160541 81 230 1.0 2.0 0.00 0.01 0.01 80 1012.7
20260509160037 80 207 2.0 2.0 0.00 0.01 0.01 81 1012.7
20260509155533 81 173 4.0 5.0 0.00 0.01 0.01 80 1012.4
20260509155029 81 270 3.0 5.0 0.00 0.01 0.01 79 1012.7
20260509154526 82 229 2.0 3.0 0.00 0.01 0.01 78 1012.7
20260509154023 81 187 4.0 5.0 0.00 0.01 0.01 80 1012.7
20260509153520 81 192 2.0 3.0 0.00 0.01 0.01 80 1012.7
20260509153017 80 234 4.0 5.0 0.00 0.01 0.01 82 1012.7
20260509152513 79 197 2.0 2.0 0.00 0.01 0.01 84 1012.7
20260509152009 79 231 4.0 5.0 0.00 0.01 0.01 84 1012.7
20260509151506 79 202 5.0 7.0 0.00 0.01 0.01 85 1012.7
20260509151005 78 254 4.0 6.0 0.00 0.01 0.01 86 1012.7
20260509150501 77 271 5.0 7.0 0.00 0.01 0.01 89 1012.7
20260509145959 76 161 4.0 6.0 0.00 0.01 0.01 92 1012.7
20260509145455 75 200 3.0 5.0 0.00 0.01 0.01 94 1012.7
20260509144950 75 200 1.0 2.0 0.00 0.01 0.01 96 1012.4
20260509144447 75 189 2.0 3.0 0.00 0.01 0.01 97 1012.4
20260509143944 74 203 3.0 3.0 0.00 0.01 0.01 98 1012.4
20260509143441 74 236 1.0 1.0 0.00 0.01 0.01 98 1012.4
20260509142938 74 183 2.0 3.0 0.00 0.01 0.01 98 1012.4
20260509142434 74 161 2.0 3.0 0.00 0.01 0.01 98 1012.4
20260509141930 74 157 2.0 3.0 0.00 0.01 0.01 98 1012.0
20260509141427 73 193 2.0 2.0 0.00 0.01 0.01 99 1012.0
20260509140924 73 207 1.0 1.0 0.00 0.01 0.01 98 1012.4
20260509140420 73 207 1.0 2.0 0.00 0.01 0.01 98 1012.4
20260509135918 73 168 2.0 2.0 0.00 0.01 0.01 98 1012.7
20260509135416 73 247 0.0 0.0 0.00 0.01 0.01 98 1012.7
20260509134913 73 149 1.0 1.0 0.00 0.01 0.01 98 1012.7
20260509134410 73 207 1.0 1.0 0.00 0.01 0.01 98 1012.7
20260509133907 73 206 0.0 1.0 0.00 0.01 0.01 98 1012.7
20260509133403 73 214 1.0 1.0 0.00 0.01 0.01 98 1012.7
20260509132902 73 239 0.0 1.0 0.00 0.01 0.01 98 1012.7
20260509132400 73 241 0.0 0.0 0.00 0.01 0.01 98 1012.4
20260509131857 73 202 0.0 1.0 0.00 0.01 0.01 98 1012.7
20260509131354 73 240 0.0 0.0 0.00 0.01 0.01 98 1012.7
20260509130850 73 238 1.0 1.0 0.00 0.01 0.01 98 1012.7
20260509130345 73 267 0.0 0.0 0.00 0.01 0.01 98 1012.0
20260509125843 73 268 0.0 0.0 0.01 0.01 0.01 98 1012.0
20260509125339 73 256 0.0 0.0 0.01 0.01 0.01 98 1012.0
20260509124835 73 297 1.0 2.0 0.01 0.01 0.01 98 1012.0
20260509124332 73 304 1.0 1.0 0.01 0.01 0.01 98 1011.7
20260509123830 73 305 0.0 0.0 0.01 0.01 0.01 98 1011.7
20260509123327 73 336 2.0 2.0 0.01 0.01 0.01 98 1012.0
20260509122823 73 296 1.0 1.0 0.01 0.01 0.01 98 1012.0
20260509122320 73 292 1.0 1.0 0.01 0.01 0.01 98 1012.7
20260509121817 73 258 0.0 0.0 0.00 0.00 0.00 98 1012.4
20260509121314 73 263 0.0 0.0 0.00 0.00 0.00 98 1012.4
20260509120813 73 261 0.0 0.0 0.00 0.00 0.00 98 1012.4
20260509120310 73 293 1.0 1.0 0.00 0.00 0.00 98 1012.0
20260509115808 73 270 0.0 0.0 0.00 0.00 0.00 98 1012.4
20260509115307 73 272 0.0 0.0 0.00 0.00 0.00 98 1012.0
20260509114803 73 285 0.0 0.0 0.00 0.00 0.00 98 1012.4
20260509114301 73 308 0.0 1.0 0.00 0.00 0.00 98 1012.4
20260509113800 73 323 2.0 2.0 0.00 0.00 0.00 98 1012.7
20260509113256 73 335 1.0 2.0 0.00 0.00 0.00 98 1012.7
20260509112753 73 304 1.0 1.0 0.00 0.00 0.00 98 1012.7
20260509112250 73 281 1.0 1.0 0.00 0.00 0.00 98 1012.7
20260509111747 73 323 2.0 2.0 0.00 0.00 0.00 98 1012.7
20260509111244 73 278 1.0 1.0 0.00 0.00 0.00 98 1012.7
20260509110741 73 0 2.0 3.0 0.00 0.00 0.00 98 1013.1
20260509110238 73 327 2.0 2.0 0.00 0.00 0.00 98 1012.7
20260509105736 73 221 0.0 1.0 0.00 0.00 0.00 98 1012.7
20260509105233 73 252 0.0 0.0 0.00 0.00 0.00 98 1013.1
20260509104730 73 323 2.0 2.0 0.00 0.00 0.00 98 1013.1
20260509104227 73 326 2.0 2.0 0.00 0.00 0.00 98 1013.1
20260509103725 73 354 3.0 3.0 0.00 0.00 0.00 98 1013.5
20260509103222 73 328 2.0 2.0 0.00 0.00 0.00 98 1013.5
20260509102720 73 335 2.0 2.0 0.00 0.00 0.00 98 1013.5
20260509102217 73 334 2.0 2.0 0.00 0.00 0.00 98 1013.1
20260509101713 73 327 2.0 2.0 0.00 0.00 0.00 97 1012.7
20260509101210 73 296 1.0 1.0 0.00 0.00 0.00 97 1012.7
20260509100708 73 271 0.0 0.0 0.00 0.00 0.00 97 1012.4
20260509100204 73 258 0.0 0.0 0.00 0.00 0.00 97 1012.0
20260509095701 73 254 0.0 0.0 0.00 0.00 0.00 97 1012.0
20260509095158 73 254 0.0 0.0 0.00 0.00 0.00 97 1012.0
20260509094655 73 254 0.0 0.0 0.00 0.00 0.00 97 1011.7
20260509094152 73 254 0.0 0.0 0.00 0.00 0.00 97 1011.7
20260509093651 73 254 0.0 0.0 0.00 0.00 0.00 97 1011.7
20260509093147 73 247 0.0 0.0 0.00 0.00 0.00 97 1011.7
20260509092645 73 232 0.0 0.0 0.00 0.00 0.00 97 1011.7
20260509092143 73 244 0.0 0.0 0.00 0.00 0.00 97 1011.7
20260509091641 73 273 0.0 0.0 0.00 0.00 0.00 97 1011.7
20260509091137 73 282 0.0 0.0 0.00 0.00 0.00 97 1011.7
20260509090635 73 258 0.0 0.0 0.00 0.00 0.00 97 1011.7
20260509090132 73 27 0.0 0.0 0.00 0.00 0.00 97 1011.7
20260509085629 73 209 1.0 2.0 0.00 0.00 0.00 97 1011.7
20260509085125 73 228 0.0 0.0 0.00 0.00 0.00 97 1011.7
20260509084622 73 243 0.0 0.0 0.00 0.00 0.00 97 1011.7
20260509084119 73 246 0.0 0.0 0.00 0.00 0.00 96 1011.7
20260509083617 73 282 0.0 1.0 0.00 0.00 0.00 96 1011.7
20260509083113 73 323 0.0 0.0 0.00 0.00 0.00 96 1012.0
20260509082611 73 311 0.0 0.0 0.00 0.00 0.00 96 1012.4
20260509082107 73 311 0.0 0.0 0.00 0.00 0.00 96 1012.4
20260509081605 73 312 1.0 1.0 0.00 0.00 0.00 96 1012.7
20260509081101 73 315 0.0 0.0 0.00 0.00 0.00 96 1012.0
20260509080600 73 311 1.0 1.0 0.00 0.00 0.00 95 1012.0
20260509080057 73 40 0.0 1.0 0.00 0.00 0.00 95 1012.0
20260509075555 73 286 0.0 0.0 0.00 0.00 0.00 95 1012.0
20260509075053 73 308 1.0 1.0 0.00 0.00 0.00 95 1011.7
20260509074549 73 24 0.0 0.0 0.00 0.00 0.00 95 1012.0
20260509074046 73 276 0.0 0.0 0.00 0.00 0.00 95 1012.0
20260509073542 73 278 0.0 0.0 0.00 0.00 0.00 95 1012.0
20260509073039 73 279 0.0 0.0 0.00 0.00 0.00 95 1012.4
20260509072535 73 290 0.0 0.0 0.00 0.00 0.00 95 1012.4
20260509072032 73 293 1.0 1.0 0.00 0.00 0.00 95 1012.0
20260509071529 73 268 0.0 0.0 0.00 0.00 0.00 95 1012.4
20260509071026 73 262 0.0 0.0 0.00 0.00 0.00 95 1012.7
20260509070523 73 261 0.0 0.0 0.00 0.00 0.00 95 1012.4
20260509070020 73 247 0.0 0.0 0.00 0.00 0.00 95 1012.0
20260509065515 73 235 1.0 1.0 0.00 0.00 0.00 95 1012.0
20260509065012 73 235 1.0 1.0 0.00 0.00 0.00 95 1012.0
20260509064509 73 201 1.0 2.0 0.00 0.00 0.00 95 1012.0
20260509064007 73 206 1.0 2.0 0.00 0.00 0.00 95 1012.0